CST,Max TemperatureF,Mean TemperatureF,Min TemperatureF,Max Dew PointF,MeanDew PointF,Min DewpointF,Max Humidity, Mean Humidity, Min Humidity, Max Sea Level PressureIn, Mean Sea Level PressureIn, Min Sea Level PressureIn, Max VisibilityMiles, Mean VisibilityMiles, Min VisibilityMiles, Max Wind SpeedMPH, Mean Wind SpeedMPH, Max Gust SpeedMPH,PrecipitationIn, CloudCover, Events, WindDirDegrees
2014-2-1,62,50,39,41,26,10,76,43,17,30.08,30.04,29.99,10,10,10,17,8,,0.00,0,,187
2014-2-2,53,43,33,54,42,34,100,91,71,30.06,30.01,29.94,10,5,0,12,6,,0.00,8,,43
2014-2-3,33,32,30,34,30,28,100,95,87,30.25,30.16,29.92,10,7,2,10,6,,0.00,8,,17
2014-2-4,51,40,30,50,39,30,100,90,71,30.21,30.02,29.74,10,7,0,14,4,,0.00,7,,103
2014-2-5,44,34,24,43,28,18,100,87,74,30.35,30.11,29.78,10,9,2,13,7,,0.00,8,,306
2014-2-6,26,24,21,19,18,14,93,77,68,30.42,30.36,30.32,10,10,10,8,5,,0.00,8,,16
2014-2-7,28,24,19,19,18,16,93,78,64,30.42,30.34,30.27,10,10,8,7,2,,0.00,7,,10
2014-2-8,37,30,24,32,26,19,87,78,74,30.26,30.19,30.11,10,10,2,7,2,,0.00,7,,223
2014-2-9,37,32,28,36,32,27,100,93,87,30.18,30.12,30.08,10,8,2,7,2,,0.00,8,,335
2014-2-10,30,26,21,27,20,12,93,76,59,30.27,30.21,30.13,10,10,9,10,6,,0.00,4,,32
2014-2-11,37,27,17,16,13,10,79,58,35,30.33,30.27,30.22,10,10,10,10,6,,0.00,0,,28
2014-2-12,42,33,24,32,24,16,100,72,49,30.18,30.02,29.84,10,10,2,12,1,,0.00,3,,55
2014-2-13,46,35,24,28,20,12,93,64,27,29.87,29.82,29.79,10,10,10,9,4,,0.00,2,,317
2014-2-14,53,37,21,39,31,19,100,77,44,29.84,29.75,29.64,10,9,4,21,7,33,0.00,3,,223
2014-2-15,32,24,17,27,17,10,100,73,55,30.15,30.06,29.83,10,10,4,16,7,23,0.00,4,,328
2014-2-16,51,37,23,30,26,19,93,66,41,30.18,30.10,30.01,10,10,10,9,3,,0.00,1,,273
2014-2-17,60,42,24,54,34,21,100,75,36,30.16,30.06,29.89,10,9,2,22,5,29,0.00,3,,208
2014-2-18,62,42,21,52,31,19,100,63,26,30.22,30.09,29.93,10,8,0,12,3,,0.00,1,,184
2014-2-19,66,55,44,55,47,37,94,71,40,30.03,29.97,29.85,10,10,8,16,8,,0.00,2,,267
2014-2-20,73,63,53,61,55,52,100,74,53,29.97,29.86,29.70,10,10,2,25,12,36,0.00,4,,198
2014-2-21,51,38,26,46,29,12,100,69,22,30.10,30.01,29.82,10,9,3,15,6,,0.00,1,,267
2014-2-22,64,44,23,30,23,19,100,50,19,30.16,30.06,29.97,10,10,10,9,2,,0.00,0,,185
2014-2-23,66,50,33,36,32,28,87,57,26,30.14,30.02,29.94,10,10,10,13,3,,0.00,2,,350
2014-2-24,44,35,26,30,18,9,93,56,23,30.27,30.19,30.11,10,10,10,10,4,,0.00,0,,28
2014-2-25,44,36,28,21,17,14,74,46,29,30.15,30.08,30.03,10,10,10,10,2,,0.00,2,,358
2014-2-26,33,22,12,19,10,1,85,54,32,30.11,30.02,29.96,10,10,10,12,7,,0.00,2,,354
2014-2-27,39,24,10,16,10,5,86,57,28,30.07,30.01,29.96,10,10,10,12,3,,0.00,0,,329
2014-2-28,53,32,12,30,12,3,92,44,15,30.15,30.08,30.02,10,10,10,17,2,,0.00,2,,178